FW8685 Weather Reports


time (UTC)temp
F
wind
direction
speed
knots
gust
knots
rain 1hr
in
rain 24hr
in
rain mn
in
humidity
%
barometer
mb
20260902215024 102 123 9.6 16.5 0.00 0.00 0.00 31 1009.5
20260902214546 102 117 10.4 17.4 0.00 0.00 0.00 32 1009.5
20260902214024 102 139 10.4 17.4 0.00 0.00 0.00 30 1009.6
20260902213525 102 120 9.6 17.4 0.00 0.00 0.00 29 1009.6
20260902213052 102 153 7.0 17.4 0.00 0.00 0.00 30 1009.6
20260902212525 102 123 9.6 18.2 0.00 0.00 0.00 30 1009.7
20260902212024 102 122 13.0 18.2 0.00 0.00 0.00 30 1009.7
20260902211552 101 129 4.3 12.2 0.00 0.00 0.00 31 1009.8
20260902211026 102 146 6.1 14.8 0.00 0.00 0.00 30 1010.0
20260902210525 102 144 6.1 17.4 0.00 0.00 0.00 31 1010.0
20260902210047 101 145 10.4 17.4 0.00 0.00 0.00 31 1010.1
20260902205525 101 103 11.3 17.4 0.00 0.00 0.00 32 1010.1
20260902205024 101 141 9.6 17.4 0.00 0.00 0.00 32 1010.1
20260902204547 102 169 7.8 14.8 0.00 0.00 0.00 31 1010.3
20260902204024 102 157 6.1 14.8 0.00 0.00 0.00 31 1010.3
20260902203523 101 126 5.2 16.5 0.00 0.00 0.00 31 1010.3
20260902203046 102 151 7.8 16.5 0.00 0.00 0.00 30 1010.4
20260902202524 103 113 8.7 13.9 0.00 0.00 0.00 31 1010.5
20260902202024 103 138 5.2 15.6 0.00 0.00 0.00 32 1010.6
20260902201542 102 178 9.6 20.0 0.00 0.00 0.00 31 1010.7
20260902201023 102 115 9.6 20.0 0.00 0.00 0.00 31 1010.6
20260902200528 101 117 10.4 17.4 0.00 0.00 0.00 33 1010.7
20260902200045 102 96 9.6 18.2 0.00 0.00 0.00 33 1010.8
20260902195523 102 112 10.4 18.2 0.00 0.00 0.00 32 1010.8
20260902195025 103 101 7.8 15.6 0.00 0.00 0.00 33 1010.8
20260902194544 102 102 9.6 15.6 0.00 0.00 0.00 33 1010.9
20260902194025 102 106 8.7 18.2 0.00 0.00 0.00 32 1011.0
20260902193524 102 90 9.6 18.2 0.00 0.00 0.00 33 1011.1
20260902193049 102 127 10.4 16.5 0.00 0.00 0.00 33 1011.1
20260902192524 102 101 9.6 16.5 0.00 0.00 0.00 35 1011.1
20260902192024 101 111 7.8 16.5 0.00 0.00 0.00 35 1011.3
20260902191546 102 123 10.4 16.5 0.00 0.00 0.00 34 1011.3
20260902191026 101 117 8.7 20.9 0.00 0.00 0.00 37 1011.4
20260902190525 101 117 11.3 20.9 0.00 0.00 0.00 37 1011.4
20260902190046 101 134 7.8 16.5 0.00 0.00 0.00 36 1011.6
20260902185524 101 149 10.4 21.7 0.00 0.00 0.00 36 1011.7
20260902185024 101 96 11.3 21.7 0.00 0.00 0.00 36 1011.7
20260902184552 102 104 11.3 20.0 0.00 0.00 0.00 36 1011.8
20260902184023 101 144 6.1 15.6 0.00 0.00 0.00 37 1011.9
20260902183524 101 126 10.4 17.4 0.00 0.00 0.00 38 1012.0
20260902183045 100 124 9.6 20.0 0.00 0.00 0.00 37 1012.0
20260902182523 100 148 8.7 20.0 0.00 0.00 0.00 37 1012.2
20260902182025 100 107 10.4 17.4 0.00 0.00 0.00 38 1012.2
20260902181546 99 103 8.7 17.4 0.00 0.00 0.00 39 1012.3
20260902181026 99 109 11.3 18.2 0.00 0.00 0.00 39 1012.4
20260902180523 99 113 12.2 20.0 0.00 0.00 0.00 39 1012.4
20260902175522 99 113 7.8 14.8 0.00 0.00 0.00 39 1012.4
20260902175025 99 121 8.7 17.4 0.00 0.00 0.00 40 1012.5
20260902174549 99 136 9.6 20.0 0.00 0.00 0.00 40 1012.7
20260902174024 99 153 9.6 20.0 0.00 0.00 0.00 40 1012.7
20260902173526 99 147 13.9 20.0 0.00 0.00 0.00 40 1012.8
20260902173046 98 154 8.7 16.5 0.00 0.00 0.00 42 1012.9
20260902172526 98 130 8.7 16.5 0.00 0.00 0.00 41 1012.9
20260902172024 98 132 10.4 16.5 0.00 0.00 0.00 42 1013.0
20260902171548 97 128 12.2 16.5 0.00 0.00 0.00 42 1013.0
20260902171024 97 102 8.7 16.5 0.00 0.00 0.00 42 1013.0
20260902170525 97 122 7.8 16.5 0.00 0.00 0.00 43 1013.1
20260902170047 97 138 9.6 15.6 0.00 0.00 0.00 43 1013.2
20260902165525 97 124 8.7 17.4 0.00 0.00 0.00 43 1013.1
20260902165028 96 146 8.7 17.4 0.00 0.00 0.00 44 1013.1
20260902164545 96 136 8.7 16.5 0.00 0.00 0.00 44 1013.2
20260902164024 95 155 7.8 19.1 0.00 0.00 0.00 45 1013.3
20260902163524 96 144 9.6 19.1 0.00 0.00 0.00 45 1013.3
20260902163051 95 153 10.4 18.2 0.00 0.00 0.00 45 1013.5
20260902162524 95 110 7.8 15.6 0.00 0.00 0.00 46 1013.5
20260902162024 95 157 8.7 16.5 0.00 0.00 0.00 45 1013.5
20260902161553 95 130 9.6 16.5 0.00 0.00 0.00 46 1013.5
20260902161026 94 150 8.7 19.1 0.00 0.00 0.00 47 1013.5
20260902160525 94 146 10.4 20.9 0.00 0.00 0.00 46 1013.5
20260902160044 94 103 7.8 20.9 0.00 0.00 0.00 47 1013.6
20260902155528 94 143 13.0 20.9 0.00 0.00 0.00 47 1013.6
20260902155026 94 138 7.8 17.4 0.00 0.00 0.00 48 1013.5
20260902154544 93 127 7.8 17.4 0.00 0.00 0.00 48 1013.7
20260902154025 93 161 10.4 17.4 0.00 0.00 0.00 48 1013.6
20260902153525 93 159 10.4 17.4 0.00 0.00 0.00 49 1013.6
20260902153050 92 137 9.6 19.1 0.00 0.00 0.00 49 1013.6
20260902152526 91 130 8.7 19.1 0.00 0.00 0.00 51 1013.6
20260902152023 91 133 10.4 19.1 0.00 0.00 0.00 51 1013.6
20260902151545 91 154 7.8 15.6 0.00 0.00 0.00 52 1013.6
20260902151027 90 131 7.8 13.9 0.00 0.00 0.00 53 1013.6
20260902150524 90 123 9.6 17.4 0.00 0.00 0.00 53 1013.6
20260902150045 90 138 11.3 17.4 0.00 0.00 0.00 53 1013.6
20260902145523 89 103 8.7 17.4 0.00 0.00 0.00 54 1013.6
20260902145026 89 153 9.6 17.4 0.00 0.00 0.00 54 1013.6
20260902144543 88 148 8.7 17.4 0.00 0.00 0.00 55 1013.5
20260902144024 88 140 8.7 15.6 0.00 0.00 0.00 56 1013.6
20260902143523 87 119 6.1 13.9 0.00 0.00 0.00 57 1013.6
20260902143045 87 116 7.8 13.9 0.00 0.00 0.00 57 1013.6
20260902142520 86 123 6.1 13.0 0.00 0.00 0.00 59 1013.6
20260902142025 85 119 7.0 12.2 0.00 0.00 0.00 60 1013.6
20260902141544 85 119 5.2 10.4 0.00 0.00 0.00 61 1013.6
20260902141024 84 111 6.1 10.4 0.00 0.00 0.00 62 1013.5
20260902140524 83 124 6.1 10.4 0.00 0.00 0.00 63 1013.6
20260902140042 83 132 5.2 10.4 0.00 0.00 0.00 64 1013.6
20260902135524 82 112 5.2 8.7 0.00 0.00 0.00 65 1013.7
20260902135025 81 113 5.2 9.6 0.00 0.00 0.00 66 1013.6
20260902134544 81 107 5.2 9.6 0.00 0.00 0.00 67 1013.6
20260902134022 80 109 5.2 9.6 0.00 0.00 0.00 68 1013.6
20260902133524 79 103 5.2 9.6 0.00 0.00 0.00 69 1013.5
20260902133045 78 98 6.1 8.7 0.00 0.00 0.00 70 1013.5
20260902132524 78 129 5.2 8.7 0.00 0.00 0.00 71 1013.4
20260902132023 77 97 6.1 8.7 0.00 0.00 0.00 72 1013.4
20260902131544 76 107 5.2 8.7 0.00 0.00 0.00 74 1013.5
20260902131025 75 115 6.1 7.8 0.00 0.00 0.00 75 1013.4
20260902130531 74 128 4.3 7.8 0.00 0.00 0.00 76 1013.5
20260902130056 74 112 4.3 7.0 0.00 0.00 0.00 77 1013.3
20260902125523 73 105 3.5 6.1 0.00 0.00 0.00 78 1013.2
20260902125027 72 94 2.6 7.0 0.00 0.00 0.00 79 1013.2
20260902124545 72 117 3.5 7.0 0.00 0.00 0.00 79 1013.1
20260902124023 72 115 3.5 6.1 0.00 0.00 0.00 79 1013.0
20260902123524 71 110 2.6 5.2 0.00 0.00 0.00 79 1013.0
20260902123054 71 112 2.6 3.5 0.00 0.00 0.00 78 1013.0
20260902122524 71 118 2.6 3.5 0.00 0.00 0.00 78 1012.9
20260902122022 71 115 2.6 5.2 0.00 0.00 0.00 78 1012.8
20260902121541 71 117 1.7 5.2 0.00 0.00 0.00 78 1012.8
20260902121025 71 119 2.6 5.2 0.00 0.00 0.00 77 1012.8
20260902120525 71 121 2.6 5.2 0.00 0.00 0.00 77 1012.8
20260902120044 71 111 2.6 6.1 0.00 0.00 0.00 77 1012.8
20260902115526 71 117 2.6 6.1 0.00 0.00 0.00 77 1012.8
20260902115025 71 103 3.5 7.0 0.00 0.00 0.00 77 1012.7
20260902114543 71 116 3.5 7.0 0.00 0.00 0.00 77 1012.6
20260902114022 72 111 2.6 6.1 0.00 0.00 0.00 76 1012.6
20260902113523 72 101 3.5 6.1 0.00 0.00 0.00 76 1012.6
20260902113047 72 107 3.5 6.1 0.00 0.00 0.00 76 1012.6
20260902112528 72 111 2.6 5.2 0.00 0.00 0.00 75 1012.7
20260902112024 72 103 2.6 3.5 0.00 0.00 0.00 75 1012.5
20260902111547 72 109 2.6 3.5 0.00 0.00 0.00 75 1012.6
20260902111024 72 119 2.6 5.2 0.00 0.00 0.00 75 1012.6
20260902110528 72 119 1.7 7.0 0.00 0.00 0.00 75 1012.7
20260902110048 72 120 2.6 7.0 0.00 0.00 0.00 75 1012.5
20260902105524 72 107 5.2 7.0 0.00 0.00 0.00 75 1012.4
20260902105025 72 103 4.3 7.0 0.00 0.00 0.00 75 1012.5
20260902104552 72 105 4.3 7.0 0.00 0.00 0.00 74 1012.4
20260902104025 72 105 3.5 6.1 0.00 0.00 0.00 73 1012.5
20260902103528 73 104 2.6 5.2 0.00 0.00 0.00 73 1012.4
20260902103043 73 104 2.6 5.2 0.00 0.00 0.00 73 1012.4
20260902102525 73 108 2.6 5.2 0.00 0.00 0.00 73 1012.4
20260902102026 73 108 2.6 6.1 0.00 0.00 0.00 73 1012.3
20260902101549 73 116 3.5 7.0 0.00 0.00 0.00 73 1012.3
20260902101025 73 107 3.5 7.0 0.00 0.00 0.00 73 1012.3
20260902100524 73 101 3.5 6.1 0.00 0.00 0.00 73 1012.3
20260902095523 73 113 2.6 5.2 0.00 0.00 0.00 72 1012.2
20260902095024 73 112 3.5 5.2 0.00 0.00 0.00 72 1012.2
20260902094543 73 117 2.6 5.2 0.00 0.00 0.00 72 1012.1
20260902094024 73 115 2.6 5.2 0.00 0.00 0.00 72 1012.1
20260902093524 73 109 2.6 5.2 0.00 0.00 0.00 72 1012.2
20260902093050 73 119 2.6 5.2 0.00 0.00 0.00 72 1012.1
20260902092524 73 117 2.6 5.2 0.00 0.00 0.00 71 1012.0
20260902092028 73 113 2.6 5.2 0.00 0.00 0.00 71 1012.1
20260902091545 74 110 2.6 5.2 0.00 0.00 0.00 71 1012.1
20260902091026 74 120 2.6 5.2 0.00 0.00 0.00 71 1012.0
20260902090524 74 113 2.6 5.2 0.00 0.00 0.00 71 1012.1
20260902090043 74 111 2.6 5.2 0.00 0.00 0.00 70 1012.1
20260902085524 74 111 2.6 5.2 0.00 0.00 0.00 70 1012.0
20260902085025 74 120 2.6 3.5 0.00 0.00 0.00 69 1012.0
20260902084551 74 115 2.6 5.2 0.00 0.00 0.00 69 1012.0
20260902084024 75 111 2.6 5.2 0.00 0.00 0.00 69 1011.9
20260902083524 75 119 2.6 4.3 0.00 0.00 0.00 68 1011.9
20260902083047 75 119 2.6 5.2 0.00 0.00 0.00 68 1011.9
20260902082524 75 109 2.6 5.2 0.00 0.00 0.00 67 1011.9
20260902082024 75 107 2.6 3.5 0.00 0.00 0.00 67 1011.9
20260902081549 75 108 2.6 3.5 0.00 0.00 0.00 67 1011.9
20260902081024 76 113 2.6 5.2 0.00 0.00 0.00 67 1011.9
20260902080524 76 114 2.6 5.2 0.00 0.00 0.00 66 1011.9
20260902080042 76 124 2.6 5.2 0.00 0.00 0.00 66 1011.9
20260902075524 76 114 2.6 6.1 0.00 0.00 0.00 66 1011.8
20260902075024 76 118 3.5 6.1 0.00 0.00 0.00 66 1011.8
20260902074546 76 111 3.5 7.0 0.00 0.00 0.00 65 1011.8
20260902074026 76 109 3.5 7.0 0.00 0.00 0.00 65 1011.7
20260902073525 77 108 4.3 7.0 0.00 0.00 0.00 65 1011.8
20260902073051 77 105 4.3 7.0 0.00 0.00 0.00 64 1011.8
20260902072524 77 108 4.3 7.0 0.00 0.00 0.00 64 1011.8
20260902072028 77 105 5.2 7.0 0.00 0.00 0.00 64 1011.7
20260902071543 77 109 4.3 6.1 0.00 0.00 0.00 63 1011.8
20260902071025 78 107 3.5 7.0 0.00 0.00 0.00 63 1011.8
20260902070524 78 112 3.5 7.0 0.00 0.00 0.00 63 1011.8
20260902070051 78 109 4.3 7.0 0.00 0.00 0.00 62 1011.9
20260902065524 78 107 3.5 7.0 0.00 0.00 0.00 62 1011.9
20260902065025 78 104 4.3 7.0 0.00 0.00 0.00 62 1011.9
20260902064552 78 121 4.3 7.8 0.00 0.00 0.00 62 1011.8
20260902064024 78 100 4.3 7.8 0.00 0.00 0.00 62 1011.8
20260902063524 78 113 5.2 7.8 0.00 0.00 0.00 62 1011.9
20260902063050 78 113 4.3 7.8 0.00 0.00 0.00 61 1011.8
20260902062524 79 109 5.2 7.8 0.00 0.00 0.00 61 1011.8
20260902062027 79 360 5.2 7.0 0.00 0.00 0.00 61 1011.7
20260902061604 79 119 4.3 7.8 0.00 0.00 0.00 61 1011.8
20260902061026 79 98 5.2 7.8 0.00 0.00 0.00 61 1011.8
20260902060526 79 109 5.2 8.7 0.00 0.00 0.00 61 1011.7
20260902060045 79 111 6.1 8.7 0.00 0.00 0.00 61 1011.7
20260902055525 79 106 6.1 9.6 0.00 0.00 0.00 61 1011.7
20260902055025 79 115 6.1 9.6 0.00 0.00 0.00 61 1011.7
20260902054550 79 115 6.1 8.7 0.00 0.00 0.00 61 1011.8
20260902054025 79 112 6.1 8.7 0.00 0.00 0.00 60 1011.7
20260902053524 79 127 5.2 8.7 0.00 0.00 0.00 60 1011.9
20260902053048 79 113 5.2 7.0 0.00 0.00 0.00 60 1011.7
20260902052531 79 111 3.5 7.8 0.00 0.00 0.00 59 1011.8
20260902052024 79 115 4.3 7.8 0.00 0.00 0.00 59 1011.9
20260902051544 79 110 5.2 7.8 0.00 0.00 0.00 59 1011.9
20260902051024 80 89 5.2 7.8 0.00 0.00 0.00 59 1011.9
20260902050526 80 105 4.3 7.0 0.00 0.00 0.00 58 1011.9
20260902050050 80 98 4.3 7.0 0.00 0.00 0.00 58 1011.9
20260902045523 80 117 4.3 7.8 0.00 0.00 0.00 58 1011.9
20260902045024 80 97 5.2 7.8 0.00 0.00 0.00 57 1011.9
20260902044543 80 98 5.2 7.8 0.00 0.00 0.00 57 1011.8
20260902044025 80 97 5.2 7.8 0.00 0.00 0.00 57 1011.8
20260902043529 80 91 5.2 7.8 0.00 0.00 0.00 57 1011.8
20260902043040 81 107 4.3 7.8 0.00 0.00 0.00 56 1011.8
20260902042525 81 106 5.2 7.8 0.00 0.00 0.00 56 1011.9
20260902042024 81 101 4.3 7.8 0.00 0.00 0.00 55 1011.9
20260902041545 81 104 4.3 7.0 0.00 0.00 0.00 55 1011.8
20260902041027 81 99 4.3 7.8 0.00 0.00 0.00 54 1011.8
20260902040529 81 96 5.2 7.8 0.00 0.00 0.00 54 1011.7
20260902040045 81 101 5.2 7.8 0.00 0.00 0.00 54 1011.7
20260902035525 82 101 5.2 8.7 0.00 0.00 0.00 53 1011.7
20260902035023 82 95 5.2 8.7 0.00 0.00 0.00 53 1011.8
20260902034543 82 107 5.2 8.7 0.00 0.00 0.00 52 1011.8
20260902034027 82 101 5.2 8.7 0.00 0.00 0.00 52 1011.7
20260902033524 82 95 6.1 7.8 0.00 0.00 0.00 52 1011.8
20260902033046 82 101 6.1 7.8 0.00 0.00 0.00 51 1011.8
20260902032525 82 94 5.2 7.8 0.00 0.00 0.00 51 1011.8
20260902032028 82 98 5.2 7.0 0.00 0.00 0.00 50 1011.8
20260902031547 82 102 4.3 7.0 0.00 0.00 0.00 49 1011.8
20260902031024 83 113 4.3 6.1 0.00 0.00 0.00 49 1011.7
20260902030523 83 100 3.5 7.0 0.00 0.00 0.00 49 1011.8
20260902030048 83 94 3.5 7.8 0.00 0.00 0.00 48 1011.7
20260902025524 83 92 5.2 7.8 0.00 0.00 0.00 48 1011.6
20260902025029 83 103 5.2 7.8 0.00 0.00 0.00 48 1011.5
20260902024548 83 94 4.3 7.0 0.00 0.00 0.00 48 1011.5
20260902024025 84 94 3.5 7.0 0.00 0.00 0.00 47 1011.4
20260902023523 84 94 4.3 7.0 0.00 0.00 0.00 47 1011.4
20260902023051 84 90 3.5 7.0 0.00 0.00 0.00 46 1011.3
20260902022524 85 105 4.3 7.0 0.00 0.00 0.00 46 1011.2
20260902022024 85 101 4.3 7.0 0.00 0.00 0.00 45 1011.2
20260902021544 85 100 4.3 7.0 0.00 0.00 0.00 45 1011.1
20260902021024 85 96 3.5 7.0 0.00 0.00 0.00 45 1011.0
20260902020525 86 109 4.3 7.0 0.00 0.00 0.00 44 1011.0
20260902020046 86 100 4.3 7.0 0.00 0.00 0.00 43 1010.9
20260902015527 86 101 4.3 7.8 0.00 0.00 0.00 43 1010.8
20260902015024 87 104 4.3 7.8 0.00 0.00 0.00 42 1010.8
20260902014548 87 99 5.2 8.7 0.00 0.00 0.00 42 1010.8
20260902014025 87 99 5.2 8.7 0.00 0.00 0.00 42 1010.6
20260902013523 88 88 4.3 7.0 0.00 0.00 0.00 41 1010.6
20260902013044 88 96 4.3 7.0 0.00 0.00 0.00 41 1010.6
20260902012527 88 99 3.5 7.8 0.00 0.00 0.00 41 1010.6
20260902012026 89 103 5.2 7.8 0.00 0.00 0.00 40 1010.7
20260902011549 90 100 4.3 7.8 0.00 0.00 0.00 39 1010.6
20260902011024 90 100 4.3 7.0 0.00 0.00 0.00 39 1010.7
20260902010528 90 92 5.2 8.7 0.00 0.00 0.00 38 1010.8
20260902010057 91 96 5.2 8.7 0.00 0.00 0.00 38 1010.6
20260902005525 91 113 5.2 8.7 0.00 0.00 0.00 37 1010.8
20260902005024 92 105 5.2 8.7 0.00 0.00 0.00 37 1010.8
20260902004546 92 98 5.2 9.6 0.00 0.00 0.00 36 1010.8
20260902004024 93 104 6.1 10.4 0.00 0.00 0.00 36 1010.6
20260902003525 94 107 7.0 10.4 0.00 0.00 0.00 35 1010.7
20260902003054 94 107 6.1 10.4 0.00 0.00 0.00 34 1010.8
20260902002525 95 104 7.0 10.4 0.00 0.00 0.00 34 1010.8
20260902002029 95 102 6.1 10.4 0.00 0.00 0.00 33 1010.8
20260902001547 95 114 7.8 13.9 0.00 0.00 0.00 33 1010.8
20260902001024 96 132 7.8 14.8 0.00 0.00 0.00 33 1010.8
20260902000525 96 118 9.6 16.5 0.00 0.00 0.00 32 1010.8
20260902000048 97 106 8.7 16.5 0.00 0.00 0.00 32 1010.9
20260901235525 97 103 8.7 16.5 0.00 0.00 0.00 32 1010.9
20260901235025 97 107 8.7 16.5 0.00 0.00 0.00 31 1010.8
20260901234545 97 124 10.4 16.5 0.00 0.00 0.00 31 1010.9
20260901234026 98 119 7.8 12.2 0.00 0.00 0.00 31 1010.9
20260901233526 98 108 7.8 15.6 0.00 0.00 0.00 31 1011.0
20260901233048 98 107 9.6 15.6 0.00 0.00 0.00 30 1010.9
20260901232525 98 121 6.1 13.9 0.00 0.00 0.00 30 1011.0
20260901232026 99 116 7.0 14.8 0.00 0.00 0.00 30 1010.9
20260901231545 99 138 9.6 14.8 0.00 0.00 0.00 30 1011.0
20260901231024 99 123 7.8 15.6 0.00 0.00 0.00 29 1011.0
20260901230525 99 105 9.6 15.6 0.00 0.00 0.00 29 1011.1
20260901230045 100 101 8.7 13.9 0.00 0.00 0.00 29 1011.0
20260901225524 100 94 8.7 14.8 0.00 0.00 0.00 29 1011.0
20260901225027 100 99 9.6 14.8 0.00 0.00 0.00 29 1011.0
20260901224551 100 112 10.4 17.4 0.00 0.00 0.00 29 1010.9
20260901224025 100 121 7.8 17.4 0.00 0.00 0.00 29 1011.0
20260901223525 100 126 10.4 17.4 0.00 0.00 0.00 28 1011.0
20260901223046 100 101 6.1 13.9 0.00 0.00 0.00 29 1011.0
20260901222525 100 106 7.8 14.8 0.00 0.00 0.00 29 1011.0
20260901222025 100 139 7.8 15.6 0.00 0.00 0.00 28 1011.0
20260901221555 100 130 7.0 17.4 0.00 0.00 0.00 27 1011.0
20260901221024 101 142 10.4 17.4 0.00 0.00 0.00 27 1011.2
20260901220524 101 121 9.6 18.2 0.00 0.00 0.00 27 1011.1
20260901220043 101 115 7.8 19.1 0.00 0.00 0.00 28 1011.1
20260901215525 101 111 12.2 19.1 0.00 0.00 0.00 28 1011.1